DELTA 1 DEB, 13539

Orbit data source: Space-Track

DELTA 1 DEB, 13539 is space debris in LEO originally from a launch on Thu, 29 Jul 1976 UTC launched from the Air Force Western Test Range (AFWTR). Debris objects in space refer to the collection of defunct objects orbiting the Earth. Examples of debris include non-operational satellites, rocket bodies, and fragments generated from explosions, collisions, or faulty payload assembly.

Loading next visibility...
Identifier
13539, 1976-077EM
Orbit
LEO
Country
Flag of USUS
Related business
Manufacturer
Unknown
Mission
Spacecraft
Bus & Motor
Unknown
Mass
Unknown
Launch date (UTC)
1976-07-29 (49 years ago)
Launch vehicle
Unknown
Launch site
Air Force Western Test Range (AFWTR)
Object type
Payload
Rocket body
Debris
Shape & HBR
Unknown shape, 1.1 m
Radar Cross Section
Small (<0.1 m²)

Expand to show TLE details & history
Last TLE update: 2 days ago

TLE from 2 days ago
0 DELTA 1 DEB
1 13539U 76077EM  25351.25372464  .00000041  00000-0  11727-2 0  9992
2 13539 101.8904  86.0912 0406927 357.4151  24.0718 11.65383875932560
Epoch: 2025-12-17T06:05Z
TLE epoch observation values (Epoch: 2025-12-17T06:05:21.808Z)
Latitude
22.96799°
Longitude
-96.47048°
Altitude
1,539.078 km
Speed
7.228 km/s
True Right ascension
05h 23m 59s
True Declination
22° 51' 25"
Sunlit
Object was in full shadow at epoch
Visualization orbit readout
Latitude
Unknown
Longitude
Unknown
Altitude
Unknown
Speed
Unknown
Apparent Right ascension
Unknown
Apparent Declination
Unknown
Sunlit
N/A
Visualization observer readout
Local Sidereal Time
06:11:15
Azimuth
Unknown
Elevation
Unknown
Doppler factor
Unknown
Orbital elements
Apogee altitude
2,171.639 km
Perigee altitude
1,503.02 km
Semi-major axis
8,215.466 km
Eccentricity
0.04069
Inclination
101.8904°
RAAN
86.0912°
Arg. of periapsis
357.4151°
True anomaly
26.0658°
Mean anomaly
24.0718°
Eccentric anomaly
25.05933°
Mean motion
2.91471 °/min
Orbital period
123.51 mins
BSTAR
0.0011727
Loading maneuver chart data...
Computing Atmospheric mass density...
Loading historical data...
Loading historical data...
Loading historical data...
Loading historical data...
Loading historical data...
Loading historical data...
Loading historical data...

Documentation

Showing up to 5 results
|